����������;��������(kWh)
2018-07-16 00:00;89,9
2018-07-16 00:15;93,95
2018-07-16 00:30;91,9
2018-07-16 00:45;93,3
2018-07-16 01:00;87,8
2018-07-16 01:15;83,65
2018-07-16 01:30;85,5
2018-07-16 01:45;83,2
2018-07-16 02:00;84,7
2018-07-16 02:15;84,15
2018-07-16 02:30;83,65
2018-07-16 02:45;85,8
2018-07-16 03:00;81,4
2018-07-16 03:15;82,7
2018-07-16 03:30;83,05
2018-07-16 03:45;82,85
2018-07-16 04:00;83,7
2018-07-16 04:15;81,4
2018-07-16 04:30;82,9
2018-07-16 04:45;84,1
2018-07-16 05:00;81,8
2018-07-16 05:15;82,5
2018-07-16 05:30;82,9
2018-07-16 05:45;82,7
2018-07-16 06:00;82,3
2018-07-16 06:15;79
2018-07-16 06:30;92,75
2018-07-16 06:45;106,2
2018-07-16 07:00;105,15
2018-07-16 07:15;96,4
2018-07-16 07:30;97,8
2018-07-16 07:45;165,35
2018-07-16 08:00;176,45
2018-07-16 08:15;171,25
2018-07-16 08:30;145,45
2018-07-16 08:45;169,75
2018-07-16 09:00;176,05
2018-07-16 09:15;195,2
2018-07-16 09:30;198,75
2018-07-16 09:45;202,1
2018-07-16 10:00;221,9
2018-07-16 10:15;223,65
2018-07-16 10:30;224,8
2018-07-16 10:45;246,15
2018-07-16 11:00;248,9
2018-07-16 11:15;253,05
2018-07-16 11:30;267,1
2018-07-16 11:45;264,8
2018-07-16 12:00;265,65
2018-07-16 12:15;273,7
2018-07-16 12:30;259,05
2018-07-16 12:45;271
2018-07-16 13:00;270,75
2018-07-16 13:15;258,65
2018-07-16 13:30;276,6
2018-07-16 13:45;264,45
2018-07-16 14:00;260,9
2018-07-16 14:15;264,55
2018-07-16 14:30;246,7
2018-07-16 14:45;240,6
2018-07-16 15:00;245,05
2018-07-16 15:15;230,25
2018-07-16 15:30;225,6
2018-07-16 15:45;210,1
2018-07-16 16:00;205,9
2018-07-16 16:15;202,5
2018-07-16 16:30;193,25
2018-07-16 16:45;178,8
2018-07-16 17:00;174,65
2018-07-16 17:15;168,3
2018-07-16 17:30;158,3
2018-07-16 17:45;168,2
2018-07-16 18:00;163,2
2018-07-16 18:15;158,15
2018-07-16 18:30;154,4
2018-07-16 18:45;161,8
2018-07-16 19:00;156,85
2018-07-16 19:15;146,8
2018-07-16 19:30;143,6
2018-07-16 19:45;141,85
2018-07-16 20:00;131,7
2018-07-16 20:15;122,8
2018-07-16 20:30;121,8
2018-07-16 20:45;120,75
2018-07-16 21:00;119,6
2018-07-16 21:15;119,45
2018-07-16 21:30;124,3
2018-07-16 21:45;120,65
2018-07-16 22:00;119,3
2018-07-16 22:15;117,95
2018-07-16 22:30;115,15
2018-07-16 22:45;114,35
2018-07-16 23:00;116,4
2018-07-16 23:15;113,35
2018-07-16 23:30;111,65
2018-07-16 23:45;108,8
2018-07-17 00:00;101,25
2018-07-17 00:15;106,95
2018-07-17 00:30;108,35
2018-07-17 00:45;107,4
2018-07-17 01:00;99,5
2018-07-17 01:15;89,85
2018-07-17 01:30;86,55
2018-07-17 01:45;84,45
2018-07-17 02:00;83,9
2018-07-17 02:15;84,95
2018-07-17 02:30;84,35
2018-07-17 02:45;84,65
2018-07-17 03:00;86
2018-07-17 03:15;84,05
2018-07-17 03:30;83,65
2018-07-17 03:45;84,3
2018-07-17 04:00;84,45
2018-07-17 04:15;83,95
2018-07-17 04:30;85,2
2018-07-17 04:45;84,2
2018-07-17 05:00;83,85
2018-07-17 05:15;83,45
2018-07-17 05:30;84,15
2018-07-17 05:45;84,65
2018-07-17 06:00;86,2
2018-07-17 06:15;83,4
2018-07-17 06:30;82,85
2018-07-17 06:45;105,8
2018-07-17 07:00;111
2018-07-17 07:15;107,05
2018-07-17 07:30;105,6
2018-07-17 07:45;104,7
2018-07-17 08:00;108,05
2018-07-17 08:15;118
2018-07-17 08:30;164,4
2018-07-17 08:45;205,9
2018-07-17 09:00;172,75
2018-07-17 09:15;190,55
2018-07-17 09:30;206,05
2018-07-17 09:45;214,8
2018-07-17 10:00;222
2018-07-17 10:15;224,25
2018-07-17 10:30;233,1
2018-07-17 10:45;243,3
2018-07-17 11:00;243,25
2018-07-17 11:15;252,85
2018-07-17 11:30;269,25
2018-07-17 11:45;266,5
2018-07-17 12:00;264,8
2018-07-17 12:15;275,55
2018-07-17 12:30;270,15
2018-07-17 12:45;272,9
2018-07-17 13:00;271,75
2018-07-17 13:15;271,95
2018-07-17 13:30;279,2
2018-07-17 13:45;275,85
2018-07-17 14:00;276,45
2018-07-17 14:15;270,25
2018-07-17 14:30;274
2018-07-17 14:45;274,3
2018-07-17 15:00;263,75
2018-07-17 15:15;246,1
2018-07-17 15:30;240,65
2018-07-17 15:45;235,05
2018-07-17 16:00;227,9
2018-07-17 16:15;219,8
2018-07-17 16:30;208,5
2018-07-17 16:45;199,8
2018-07-17 17:00;202,45
2018-07-17 17:15;190,75
2018-07-17 17:30;179,7
2018-07-17 17:45;189,5
2018-07-17 18:00;179,9
2018-07-17 18:15;172,2
2018-07-17 18:30;173,95
2018-07-17 18:45;165,55
2018-07-17 19:00;162,6
2018-07-17 19:15;151,65
2018-07-17 19:30;144,55
2018-07-17 19:45;135,1
2018-07-17 20:00;135,55
2018-07-17 20:15;129,35
2018-07-17 20:30;129,6
2018-07-17 20:45;131,75
2018-07-17 21:00;130,05
2018-07-17 21:15;130,1
2018-07-17 21:30;128,6
2018-07-17 21:45;129,6
2018-07-17 22:00;123,2
2018-07-17 22:15;117,25
2018-07-17 22:30;112,05
2018-07-17 22:45;110,05
2018-07-17 23:00;112,25
2018-07-17 23:15;106,3
2018-07-17 23:30;106,3
2018-07-17 23:45;106,5
2018-07-18 00:00;101,1
2018-07-18 00:15;93,25
2018-07-18 00:30;90,25
2018-07-18 00:45;89,55
2018-07-18 01:00;89,95
2018-07-18 01:15;89,45
2018-07-18 01:30;88,55
2018-07-18 01:45;87,2
2018-07-18 02:00;87,8
2018-07-18 02:15;87
2018-07-18 02:30;89,1
2018-07-18 02:45;88,7
2018-07-18 03:00;87,65
2018-07-18 03:15;88,55
2018-07-18 03:30;88,45
2018-07-18 03:45;87,65
2018-07-18 04:00;88,4
2018-07-18 04:15;85,75
2018-07-18 04:30;89,95
2018-07-18 04:45;90,75
2018-07-18 05:00;92,25
2018-07-18 05:15;89,1
2018-07-18 05:30;94,4
2018-07-18 05:45;95,85
2018-07-18 06:00;96,15
2018-07-18 06:15;93,8
2018-07-18 06:30;94,1
2018-07-18 06:45;93,95
2018-07-18 07:00;93,4
2018-07-18 07:15;117,3
2018-07-18 07:30;124,75
2018-07-18 07:45;177,85
2018-07-18 08:00;133
2018-07-18 08:15;135,3
2018-07-18 08:30;140,1
2018-07-18 08:45;155,95
2018-07-18 09:00;167,45
2018-07-18 09:15;180,6
2018-07-18 09:30;198,05
2018-07-18 09:45;204,35
2018-07-18 10:00;216,85
2018-07-18 10:15;219,2
2018-07-18 10:30;228,8
2018-07-18 10:45;241,3
2018-07-18 11:00;247,35
2018-07-18 11:15;247,2
2018-07-18 11:30;255,35
2018-07-18 11:45;257,2
2018-07-18 12:00;268,15
2018-07-18 12:15;301,8
2018-07-18 12:30;301,95
2018-07-18 12:45;270,9
2018-07-18 13:00;280,35
2018-07-18 13:15;266,9
2018-07-18 13:30;278,25
2018-07-18 13:45;278
2018-07-18 14:00;275,65
2018-07-18 14:15;276
2018-07-18 14:30;277,05
2018-07-18 14:45;272,2
2018-07-18 15:00;264,95
2018-07-18 15:15;258,85
2018-07-18 15:30;243,7
2018-07-18 15:45;239,45
2018-07-18 16:00;227,85
2018-07-18 16:15;215,5
2018-07-18 16:30;204,75
2018-07-18 16:45;194,8
2018-07-18 17:00;180,3
2018-07-18 17:15;186,15
2018-07-18 17:30;182,5
2018-07-18 17:45;172,3
2018-07-18 18:00;185,65
2018-07-18 18:15;174,7
2018-07-18 18:30;168,55
2018-07-18 18:45;164,55
2018-07-18 19:00;143,95
2018-07-18 19:15;136,5
2018-07-18 19:30;130,15
2018-07-18 19:45;131,5
2018-07-18 20:00;129,75
2018-07-18 20:15;126,75
2018-07-18 20:30;125
2018-07-18 20:45;124,05
2018-07-18 21:00;112,95
2018-07-18 21:15;111,85
2018-07-18 21:30;109,5
2018-07-18 21:45;109,35
2018-07-18 22:00;106,9
2018-07-18 22:15;102,55
2018-07-18 22:30;103,05
2018-07-18 22:45;100
2018-07-18 23:00;104,25
2018-07-18 23:15;97,7
2018-07-18 23:30;97,65
2018-07-18 23:45;96,25
2018-07-19 00:00;91,45
2018-07-19 00:15;90,35
2018-07-19 00:30;90,6
2018-07-19 00:45;90,2
2018-07-19 01:00;89,65
2018-07-19 01:15;89,85
2018-07-19 01:30;88,1
2018-07-19 01:45;88,95
2018-07-19 02:00;87,65
2018-07-19 02:15;86,6
2018-07-19 02:30;88,15
2018-07-19 02:45;87,85
2018-07-19 03:00;88,9
2018-07-19 03:15;88,2
2018-07-19 03:30;89,85
2018-07-19 03:45;89,8
2018-07-19 04:00;89,95
2018-07-19 04:15;87,8
2018-07-19 04:30;88
2018-07-19 04:45;87,6
2018-07-19 05:00;86,8
2018-07-19 05:15;88,4
2018-07-19 05:30;92,6
2018-07-19 05:45;93,8
2018-07-19 06:00;93,4
2018-07-19 06:15;88,1
2018-07-19 06:30;82,6
2018-07-19 06:45;83,65
2018-07-19 07:00;84,1
2018-07-19 07:15;96,35
2018-07-19 07:30;100,3
2018-07-19 07:45;190,15
2018-07-19 08:00;193,7
2018-07-19 08:15;166,15
2018-07-19 08:30;153,5
2018-07-19 08:45;155,8
2018-07-19 09:00;182,25
2018-07-19 09:15;192,75
2018-07-19 09:30;192,75
2018-07-19 09:45;211,75
2018-07-19 10:00;219,6
2018-07-19 10:15;212,05
2018-07-19 10:30;227,3
2018-07-19 10:45;240,35
2018-07-19 11:00;235,45
2018-07-19 11:15;254,95
2018-07-19 11:30;261,7
2018-07-19 11:45;253,4
2018-07-19 12:00;269,05
2018-07-19 12:15;262,95
2018-07-19 12:30;259,35
2018-07-19 12:45;272,35
2018-07-19 13:00;260,05
2018-07-19 13:15;273,55
2018-07-19 13:30;272,25
2018-07-19 13:45;270,05
2018-07-19 14:00;265,55
2018-07-19 14:15;263,7
2018-07-19 14:30;256,3
2018-07-19 14:45;244,75
2018-07-19 15:00;236,9
2018-07-19 15:15;226,35
2018-07-19 15:30;224,7
2018-07-19 15:45;216,05
2018-07-19 16:00;211,85
2018-07-19 16:15;200,1
2018-07-19 16:30;184,5
2018-07-19 16:45;183,9
2018-07-19 17:00;170,7
2018-07-19 17:15;164,85
2018-07-19 17:30;160,1
2018-07-19 17:45;159,35
2018-07-19 18:00;162,45
2018-07-19 18:15;155,95
2018-07-19 18:30;161,55
2018-07-19 18:45;156,7
2018-07-19 19:00;153,7
2018-07-19 19:15;149,55
2018-07-19 19:30;140,1
2018-07-19 19:45;139,85
2018-07-19 20:00;139,05
2018-07-19 20:15;135,1
2018-07-19 20:30;132,7
2018-07-19 20:45;130,05
2018-07-19 21:00;133,8
2018-07-19 21:15;123,3
2018-07-19 21:30;119,3
2018-07-19 21:45;118,1
2018-07-19 22:00;117,35
2018-07-19 22:15;115,8
2018-07-19 22:30;114,3
2018-07-19 22:45;112,7
2018-07-19 23:00;111,6
2018-07-19 23:15;101,95
2018-07-19 23:30;97,8
2018-07-19 23:45;98,7
2018-07-20 00:00;91,4
2018-07-20 00:15;93,6
2018-07-20 00:30;92,3
2018-07-20 00:45;91,85
2018-07-20 01:00;91,5
2018-07-20 01:15;90,85
2018-07-20 01:30;91,55
2018-07-20 01:45;90,7
2018-07-20 02:00;90,35
2018-07-20 02:15;88,3
2018-07-20 02:30;89,05
2018-07-20 02:45;86,75
2018-07-20 03:00;86,25
2018-07-20 03:15;87,65
2018-07-20 03:30;88,1
2018-07-20 03:45;90,55
2018-07-20 04:00;89,85
2018-07-20 04:15;90,9
2018-07-20 04:30;91
2018-07-20 04:45;114,85
2018-07-20 05:00;118,1
2018-07-20 05:15;111,5
2018-07-20 05:30;104,65
2018-07-20 05:45;104,1
2018-07-20 06:00;102,9
2018-07-20 06:15;97,9
2018-07-20 06:30;97,4
2018-07-20 06:45;107,05
2018-07-20 07:00;110,85
2018-07-20 07:15;112
2018-07-20 07:30;113,75
2018-07-20 07:45;166,35
2018-07-20 08:00;124,7
2018-07-20 08:15;125,8
2018-07-20 08:30;132,05
2018-07-20 08:45;151,55
2018-07-20 09:00;159,55
2018-07-20 09:15;172
2018-07-20 09:30;178,65
2018-07-20 09:45;203,5
2018-07-20 10:00;212,25
2018-07-20 10:15;223,95
2018-07-20 10:30;220
2018-07-20 10:45;221,9
2018-07-20 11:00;234,45
2018-07-20 11:15;232,8
2018-07-20 11:30;243,3
2018-07-20 11:45;246,85
2018-07-20 12:00;247,6
2018-07-20 12:15;251,85
2018-07-20 12:30;245,45
2018-07-20 12:45;244,6
2018-07-20 13:00;247,5
2018-07-20 13:15;248,65
2018-07-20 13:30;249,05
2018-07-20 13:45;241,05
2018-07-20 14:00;237,2
2018-07-20 14:15;233,55
2018-07-20 14:30;234,55
2018-07-20 14:45;231,25
2018-07-20 15:00;221,45
2018-07-20 15:15;210,5
2018-07-20 15:30;210,35
2018-07-20 15:45;203,35
2018-07-20 16:00;196,3
2018-07-20 16:15;196,75
2018-07-20 16:30;189,8
2018-07-20 16:45;168,7
2018-07-20 17:00;159,2
2018-07-20 17:15;153,05
2018-07-20 17:30;142,3
2018-07-20 17:45;150,9
2018-07-20 18:00;147,85
2018-07-20 18:15;143,3
2018-07-20 18:30;143,5
2018-07-20 18:45;140,6
2018-07-20 19:00;138,65
2018-07-20 19:15;128,95
2018-07-20 19:30;126,7
2018-07-20 19:45;127,05
2018-07-20 20:00;125,25
2018-07-20 20:15;126,3
2018-07-20 20:30;126,25
2018-07-20 20:45;127,45
2018-07-20 21:00;130,45
2018-07-20 21:15;128,75
2018-07-20 21:30;123,7
2018-07-20 21:45;120,9
2018-07-20 22:00;119,7
2018-07-20 22:15;117,5
2018-07-20 22:30;112,5
2018-07-20 22:45;95,3
2018-07-20 23:00;98,95
2018-07-20 23:15;93,7
2018-07-20 23:30;93,4
2018-07-20 23:45;93,1
2018-07-21 00:00;86,35
2018-07-21 00:15;86,2
2018-07-21 00:30;86,8
2018-07-21 00:45;85,35
2018-07-21 01:00;84,95
2018-07-21 01:15;85,3
2018-07-21 01:30;85,25
2018-07-21 01:45;85,65
2018-07-21 02:00;85,7
2018-07-21 02:15;85,4
2018-07-21 02:30;85,5
2018-07-21 02:45;84,2
2018-07-21 03:00;84
2018-07-21 03:15;84,3
2018-07-21 03:30;85,65
2018-07-21 03:45;85,55
2018-07-21 04:00;86
2018-07-21 04:15;84,7
2018-07-21 04:30;85,8
2018-07-21 04:45;85,05
2018-07-21 05:00;85,7
2018-07-21 05:15;85,7
2018-07-21 05:30;85,95
2018-07-21 05:45;85,05
2018-07-21 06:00;85,45
2018-07-21 06:15;81,25
2018-07-21 06:30;80
2018-07-21 06:45;78,55
2018-07-21 07:00;77,6
2018-07-21 07:15;74,8
2018-07-21 07:30;76,3
2018-07-21 07:45;76,2
2018-07-21 08:00;78,55
2018-07-21 08:15;78,95
2018-07-21 08:30;78,4
2018-07-21 08:45;78,15
2018-07-21 09:00;78,95
2018-07-21 09:15;79,85
2018-07-21 09:30;81,6
2018-07-21 09:45;81,15
2018-07-21 10:00;82,8
2018-07-21 10:15;82,4
2018-07-21 10:30;86,15
2018-07-21 10:45;82,95
2018-07-21 11:00;85,15
2018-07-21 11:15;84,35
2018-07-21 11:30;84,55
2018-07-21 11:45;85
2018-07-21 12:00;87,95
2018-07-21 12:15;86,95
2018-07-21 12:30;85,9
2018-07-21 12:45;86,05
2018-07-21 13:00;86,65
2018-07-21 13:15;87,1
2018-07-21 13:30;87,35
2018-07-21 13:45;90,25
2018-07-21 14:00;88,15
2018-07-21 14:15;89,1
2018-07-21 14:30;88,5
2018-07-21 14:45;90,1
2018-07-21 15:00;91,85
2018-07-21 15:15;90,8
2018-07-21 15:30;90,75
2018-07-21 15:45;92,2
2018-07-21 16:00;92,4
2018-07-21 16:15;91,7
2018-07-21 16:30;92,25
2018-07-21 16:45;90,05
2018-07-21 17:00;87,2
2018-07-21 17:15;90,4
2018-07-21 17:30;89,4
2018-07-21 17:45;92,2
2018-07-21 18:00;92,5
2018-07-21 18:15;88,75
2018-07-21 18:30;89,05
2018-07-21 18:45;92,8
2018-07-21 19:00;92,4
2018-07-21 19:15;93,05
2018-07-21 19:30;91,35
2018-07-21 19:45;96,25
2018-07-21 20:00;93,7
2018-07-21 20:15;94,45
2018-07-21 20:30;93,2
2018-07-21 20:45;96,4
2018-07-21 21:00;99,85
2018-07-21 21:15;99,85
2018-07-21 21:30;98,05
2018-07-21 21:45;96,7
2018-07-21 22:00;97,05
2018-07-21 22:15;94,7
2018-07-21 22:30;91,7
2018-07-21 22:45;91,65
2018-07-21 23:00;95,1
2018-07-21 23:15;93,45
2018-07-21 23:30;93,85
2018-07-21 23:45;97,15
2018-07-22 00:00;86,2
2018-07-22 00:15;87,95
2018-07-22 00:30;87,25
2018-07-22 00:45;88
2018-07-22 01:00;87,25
2018-07-22 01:15;92,95
2018-07-22 01:30;87,6
2018-07-22 01:45;85,5
2018-07-22 02:00;85,45
2018-07-22 02:15;84,55
2018-07-22 02:30;84,4
2018-07-22 02:45;85,15
2018-07-22 03:00;83,25
2018-07-22 03:15;85,05
2018-07-22 03:30;83,95
2018-07-22 03:45;85,7
2018-07-22 04:00;85,7
2018-07-22 04:15;84,5
2018-07-22 04:30;86,05
2018-07-22 04:45;84,9
2018-07-22 05:00;85,55
2018-07-22 05:15;85,75
2018-07-22 05:30;86,8
2018-07-22 05:45;85,05
2018-07-22 06:00;85,6
2018-07-22 06:15;82,1
2018-07-22 06:30;80,45
2018-07-22 06:45;80,2
2018-07-22 07:00;79,35
2018-07-22 07:15;77,5
2018-07-22 07:30;76,95
2018-07-22 07:45;76,45
2018-07-22 08:00;77,45
2018-07-22 08:15;77,45
2018-07-22 08:30;80,1
2018-07-22 08:45;80
2018-07-22 09:00;78,8
2018-07-22 09:15;79,55
2018-07-22 09:30;83,3
2018-07-22 09:45;81,95
2018-07-22 10:00;83,5
2018-07-22 10:15;83,15
2018-07-22 10:30;82,65
2018-07-22 10:45;81,1
2018-07-22 11:00;83,05
2018-07-22 11:15;82,2
2018-07-22 11:30;82,7
2018-07-22 11:45;82,2
2018-07-22 12:00;83,65
2018-07-22 12:15;88,2
2018-07-22 12:30;87,7
2018-07-22 12:45;88,3
2018-07-22 13:00;88,1
2018-07-22 13:15;88,45
2018-07-22 13:30;89,75
2018-07-22 13:45;88,6
2018-07-22 14:00;87,35
2018-07-22 14:15;87,55
2018-07-22 14:30;87,9
2018-07-22 14:45;89,05
2018-07-22 15:00;88,65
2018-07-22 15:15;88,8
2018-07-22 15:30;88,6
2018-07-22 15:45;89,55
2018-07-22 16:00;88,75
2018-07-22 16:15;89,5
2018-07-22 16:30;89,7
2018-07-22 16:45;94,85
2018-07-22 17:00;92,8
2018-07-22 17:15;94,2
2018-07-22 17:30;94,9
2018-07-22 17:45;94,65
2018-07-22 18:00;95,05
2018-07-22 18:15;93,2
2018-07-22 18:30;93,55
2018-07-22 18:45;93,9
2018-07-22 19:00;91,5
2018-07-22 19:15;93,1
2018-07-22 19:30;96
2018-07-22 19:45;97,2
2018-07-22 20:00;96,3
2018-07-22 20:15;97,45
2018-07-22 20:30;97,3
2018-07-22 20:45;101,15
2018-07-22 21:00;103,6
2018-07-22 21:15;103,25
2018-07-22 21:30;104,55
2018-07-22 21:45;103,05
2018-07-22 22:00;102,45
2018-07-22 22:15;95,6
2018-07-22 22:30;93,05
2018-07-22 22:45;94,2
2018-07-22 23:00;99,25
2018-07-22 23:15;93,3
2018-07-22 23:30;97,35
2018-07-22 23:45;98,15

